| time (UTC) | temp F | wind direction | speed MPH | gust MPH | rain 1hr in | rain 24hr in | rain mn in | humidity % | barometer mb |
| 20260903195829 | 70 | 216 | 0.0 | 1.0 | 0.00 | 0.65 | 0.65 | 95 | 1012.8 |
| 20260903195352 | 70 | 216 | 0.0 | 1.0 | 0.00 | 0.65 | 0.65 | 95 | 1012.9 |
| 20260903194917 | 69 | 295 | 0.0 | 1.0 | 0.00 | 0.65 | 0.65 | 96 | 1013.0 |
| 20260903194332 | 69 | 75 | 0.0 | 1.0 | 0.00 | 0.65 | 0.65 | 96 | 1013.1 |
| 20260903193856 | 69 | 75 | 0.0 | 1.0 | 0.00 | 0.65 | 0.65 | 95 | 1013.1 |
| 20260903193404 | 69 | 242 | 0.0 | 1.0 | 0.00 | 0.65 | 0.65 | 95 | 1013.1 |
| 20260903192345 | 69 | 278 | 0.0 | 1.0 | 0.00 | 0.65 | 0.65 | 95 | 1013.2 |
| 20260903191909 | 69 | 278 | 0.0 | 2.0 | 0.00 | 0.65 | 0.65 | 95 | 1013.2 |
| 20260903191328 | 70 | 278 | 0.0 | 1.0 | 0.00 | 0.65 | 0.65 | 95 | 1013.3 |
| 20260903190850 | 70 | 319 | 0.0 | 2.0 | 0.00 | 0.65 | 0.65 | 94 | 1013.2 |
| 20260903190417 | 70 | 69 | 0.0 | 3.0 | 0.00 | 0.65 | 0.65 | 93 | 1013.2 |
| 20260903185925 | 70 | 102 | 0.0 | 3.0 | 0.00 | 0.65 | 0.65 | 93 | 1013.2 |
| 20260903185322 | 71 | 168 | 0.0 | 1.0 | 0.00 | 0.65 | 0.65 | 94 | 1013.2 |
| 20260903184846 | 70 | 220 | 0.0 | 1.0 | 0.00 | 0.65 | 0.65 | 95 | 1013.1 |
| 20260903184407 | 70 | 302 | 0.0 | 1.0 | 0.00 | 0.65 | 0.65 | 95 | 1013.1 |
| 20260903184015 | 70 | 171 | 0.0 | 1.0 | 0.00 | 0.65 | 0.65 | 95 | 1013.0 |
| 20260903183327 | 70 | 79 | 0.0 | 5.0 | 0.00 | 0.65 | 0.65 | 95 | 1013.2 |
| 20260903182852 | 70 | 249 | 0.0 | 3.0 | 0.00 | 0.65 | 0.65 | 95 | 1013.2 |
| 20260903182400 | 69 | 100 | 0.0 | 1.0 | 0.00 | 0.65 | 0.65 | 95 | 1013.3 |
| 20260903181823 | 69 | 299 | 0.0 | 3.0 | 0.00 | 0.65 | 0.65 | 95 | 1013.2 |
| 20260903181349 | 69 | 317 | 0.0 | 4.0 | 0.00 | 0.65 | 0.65 | 95 | 1013.0 |
| 20260903180918 | 69 | 61 | 1.0 | 4.0 | 0.00 | 0.65 | 0.65 | 95 | 1012.9 |
| 20260903180341 | 69 | 290 | 0.0 | 3.0 | 0.00 | 0.65 | 0.65 | 96 | 1012.7 |
| 20260903175901 | 69 | 328 | 0.0 | 2.0 | 0.00 | 0.65 | 0.65 | 96 | 1012.4 |
| 20260903175322 | 69 | 278 | 0.0 | 2.0 | 0.01 | 0.65 | 0.65 | 96 | 1012.3 |
| 20260903174846 | 69 | 333 | 0.0 | 2.0 | 0.01 | 0.65 | 0.65 | 97 | 1012.5 |
| 20260903173850 | 68 | 80 | 0.0 | 3.0 | 0.02 | 0.65 | 0.65 | 97 | 1012.2 |
| 20260903173420 | 68 | 83 | 1.0 | 3.0 | 0.02 | 0.65 | 0.65 | 97 | 1012.4 |
| 20260903172844 | 67 | 321 | 0.0 | 2.0 | 0.02 | 0.65 | 0.65 | 97 | 1012.2 |
| 20260903171844 | 67 | 224 | 0.0 | 3.0 | 0.03 | 0.65 | 0.65 | 97 | 1012.8 |
| 20260903170843 | 66 | 282 | 0.0 | 6.0 | 0.06 | 0.65 | 0.65 | 97 | 1013.0 |
| 20260903170402 | 66 | 311 | 1.0 | 4.0 | 0.10 | 0.65 | 0.65 | 97 | 1013.0 |
| 20260903165323 | 66 | 359 | 1.0 | 2.0 | 0.34 | 0.64 | 0.64 | 97 | 1013.3 |
| 20260903164824 | 66 | 306 | 0.0 | 1.0 | 0.36 | 0.64 | 0.64 | 98 | 1013.4 |
| 20260903164345 | 66 | 293 | 0.0 | 1.0 | 0.35 | 0.63 | 0.63 | 98 | 1013.4 |
| 20260903163344 | 65 | 299 | 0.0 | 1.0 | 0.35 | 0.63 | 0.63 | 97 | 1013.2 |
| 20260903162919 | 65 | 299 | 0.0 | 2.0 | 0.35 | 0.63 | 0.63 | 97 | 1013.4 |
| 20260903162336 | 65 | 300 | 0.0 | 1.0 | 0.35 | 0.63 | 0.63 | 97 | 1013.4 |
| 20260903161344 | 65 | 317 | 0.0 | 1.0 | 0.34 | 0.62 | 0.62 | 97 | 1013.4 |
| 20260903160843 | 65 | 42 | 0.0 | 0.0 | 0.31 | 0.59 | 0.59 | 97 | 1013.4 |
| 20260903160404 | 65 | 38 | 0.0 | 1.0 | 0.24 | 0.52 | 0.52 | 97 | 1013.9 |
| 20260903155906 | 65 | 35 | 0.0 | 1.0 | 0.10 | 0.38 | 0.38 | 97 | 1014.1 |
| 20260903154847 | 65 | 35 | 0.0 | 0.0 | 0.01 | 0.28 | 0.28 | 97 | 1014.2 |
| 20260903154416 | 65 | 35 | 0.0 | 0.0 | 0.24 | 0.28 | 0.28 | 97 | 1014.1 |
| 20260903153844 | 65 | 35 | 0.0 | 0.0 | 0.28 | 0.28 | 0.28 | 97 | 1014.0 |
| 20260903152841 | 65 | 35 | 0.0 | 0.0 | 0.28 | 0.28 | 0.28 | 96 | 1013.7 |
| 20260903152411 | 65 | 35 | 0.0 | 0.0 | 0.28 | 0.28 | 0.28 | 96 | 1013.6 |
| 20260903151829 | 65 | 35 | 0.0 | 0.0 | 0.28 | 0.28 | 0.28 | 96 | 1013.4 |
| 20260903151355 | 65 | 35 | 0.0 | 0.0 | 0.28 | 0.28 | 0.28 | 96 | 1013.2 |
| 20260903150920 | 65 | 35 | 0.0 | 0.0 | 0.28 | 0.28 | 0.28 | 96 | 1013.2 |
| 20260903150344 | 65 | 37 | 0.0 | 1.0 | 0.28 | 0.28 | 0.28 | 96 | 1013.3 |
| 20260903145915 | 65 | 38 | 0.0 | 7.0 | 0.28 | 0.28 | 0.28 | 95 | 1013.3 |
| 20260903145340 | 65 | 317 | 1.0 | 7.0 | 0.28 | 0.28 | 0.28 | 95 | 1013.3 |
| 20260903144330 | 66 | 286 | 0.0 | 2.0 | 0.00 | 0.00 | 0.00 | 93 | 1013.3 |
| 20260903143841 | 66 | 286 | 0.0 | 2.0 | 0.00 | 0.00 | 0.00 | 92 | 1013.7 |
| 20260903143401 | 67 | 320 | 0.0 | 1.0 | 0.00 | 0.00 | 0.00 | 92 | 1013.1 |
| 20260903142909 | 67 | 320 | 0.0 | 1.0 | 0.00 | 0.00 | 0.00 | 92 | 1012.9 |
| 20260903142330 | 67 | 320 | 0.0 | 1.0 | 0.00 | 0.00 | 0.00 | 91 | 1013.0 |
| 20260903141852 | 67 | 320 | 0.0 | 2.0 | 0.00 | 0.00 | 0.00 | 91 | 1013.0 |
| 20260903141411 | 67 | 331 | 0.0 | 2.0 | 0.00 | 0.00 | 0.00 | 91 | 1013.0 |
| 20260903140918 | 67 | 302 | 0.0 | 2.0 | 0.00 | 0.00 | 0.00 | 91 | 1012.8 |
| 20260903140441 | 67 | 321 | 0.0 | 2.0 | 0.00 | 0.00 | 0.00 | 91 | 1012.8 |
| 20260903135827 | 67 | 320 | 0.0 | 1.0 | 0.00 | 0.00 | 0.00 | 92 | 1012.7 |
| 20260903135345 | 67 | 315 | 0.0 | 5.0 | 0.00 | 0.00 | 0.00 | 92 | 1012.6 |
| 20260903134916 | 66 | 316 | 1.0 | 5.0 | 0.00 | 0.00 | 0.00 | 92 | 1012.6 |
| 20260903134337 | 66 | 299 | 0.0 | 2.0 | 0.00 | 0.00 | 0.00 | 93 | 1012.7 |
| 20260903133905 | 66 | 84 | 0.0 | 1.0 | 0.00 | 0.00 | 0.00 | 93 | 1012.7 |
| 20260903133328 | 66 | 305 | 0.0 | 1.0 | 0.00 | 0.00 | 0.00 | 93 | 1012.8 |
| 20260903132854 | 66 | 292 | 0.0 | 3.0 | 0.00 | 0.00 | 0.00 | 93 | 1012.8 |
| 20260903132420 | 66 | 83 | 1.0 | 3.0 | 0.00 | 0.00 | 0.00 | 93 | 1012.8 |
| 20260903131841 | 65 | 308 | 0.0 | 2.0 | 0.00 | 0.00 | 0.00 | 94 | 1012.9 |
| 20260903131348 | 65 | 295 | 0.0 | 1.0 | 0.00 | 0.00 | 0.00 | 93 | 1012.9 |
| 20260903130836 | 65 | 295 | 0.0 | 2.0 | 0.00 | 0.00 | 0.00 | 93 | 1012.9 |
| 20260903130341 | 65 | 302 | 0.0 | 1.0 | 0.00 | 0.00 | 0.00 | 94 | 1012.8 |
| 20260903125849 | 65 | 312 | 0.0 | 1.0 | 0.00 | 0.00 | 0.00 | 94 | 1012.8 |
| 20260903125411 | 65 | 311 | 0.0 | 1.0 | 0.00 | 0.00 | 0.00 | 94 | 1012.7 |
| 20260903124828 | 65 | 264 | 0.0 | 2.0 | 0.00 | 0.00 | 0.00 | 94 | 1012.7 |
| 20260903124344 | 64 | 321 | 0.0 | 2.0 | 0.00 | 0.00 | 0.00 | 94 | 1012.9 |
| 20260903123910 | 64 | 116 | 0.0 | 2.0 | 0.00 | 0.00 | 0.00 | 94 | 1012.8 |
| 20260903123335 | 64 | 317 | 0.0 | 2.0 | 0.00 | 0.00 | 0.00 | 94 | 1012.8 |
| 20260903122857 | 64 | 69 | 0.0 | 2.0 | 0.00 | 0.00 | 0.00 | 94 | 1012.7 |
| 20260903122406 | 64 | 302 | 0.0 | 2.0 | 0.00 | 0.00 | 0.00 | 94 | 1012.9 |
| 20260903121858 | 64 | 278 | 0.0 | 1.0 | 0.00 | 0.00 | 0.00 | 94 | 1012.7 |
| 20260903121420 | 64 | 311 | 0.0 | 1.0 | 0.00 | 0.00 | 0.00 | 94 | 1013.0 |
| 20260903120855 | 64 | 293 | 0.0 | 1.0 | 0.00 | 0.00 | 0.00 | 94 | 1013.0 |
| 20260903120338 | 64 | 324 | 0.0 | 1.0 | 0.00 | 0.01 | 0.00 | 94 | 1013.0 |
| 20260903115921 | 63 | 324 | 0.0 | 1.0 | 0.00 | 0.01 | 0.00 | 95 | 1013.0 |
| 20260903115342 | 63 | 310 | 0.0 | 1.0 | 0.00 | 0.01 | 0.00 | 95 | 1013.0 |
| 20260903114904 | 63 | 305 | 0.0 | 1.0 | 0.00 | 0.01 | 0.00 | 95 | 1013.0 |
| 20260903114402 | 63 | 282 | 0.0 | 1.0 | 0.00 | 0.01 | 0.00 | 95 | 1012.9 |
| 20260903113844 | 63 | 289 | 0.0 | 0.0 | 0.00 | 0.01 | 0.00 | 95 | 1012.8 |
| 20260903113327 | 63 | 289 | 0.0 | 3.0 | 0.00 | 0.01 | 0.00 | 95 | 1012.7 |
| 20260903112910 | 63 | 287 | 0.0 | 3.0 | 0.00 | 0.01 | 0.00 | 95 | 1012.7 |
| 20260903112334 | 63 | 278 | 0.0 | 1.0 | 0.00 | 0.01 | 0.00 | 96 | 1012.7 |
| 20260903111858 | 63 | 296 | 0.0 | 1.0 | 0.00 | 0.01 | 0.00 | 96 | 1012.7 |
| 20260903111418 | 63 | 310 | 0.0 | 1.0 | 0.00 | 0.01 | 0.00 | 96 | 1012.7 |
| 20260903110939 | 63 | 321 | 0.0 | 1.0 | 0.00 | 0.01 | 0.00 | 96 | 1012.7 |
| 20260903103332 | 62 | 317 | 0.0 | 1.0 | 0.00 | 0.20 | 0.00 | 97 | 1012.5 |